Find Starlink 32789

NORAD ID: 62529 Int'l Des: 2025-004 Owner: SPXS Country: US Constellation: starlink operational
LEOCIRCULAR

Live Position

Loading 3D Globe...

About Starlink 32789

Description loading...

Upcoming Passes

Passes for default location (London). Set your location on the main map for personalized predictions.

Altitude History

Loading altitude history...

Two-Line Element Set

1 62529U 25004U 26106.98201242 .00011705 00000-0 43405-3 0 9991
2 62529 43.0033 3.7240 0001281 267.9234 92.1471 15.27592535 72311
Epoch: Apr 16, 2026 • Age: 12 hours

Current Status

Altitude 489.7 km
Velocity 7.62 km/s
Sub-Earth Point -28.25°S, 58.76°W
Launch Date Jan 8, 2025
Age 1.2 years
Type internet

Technical Details

Classification Payload
Mass 730.00 kg
Dry Mass 700.00 kg
Total Mass 730.00 kg
Length 0.30 m
Diameter 4.10 m
Span 29.00 m
Shape Box + pan
Manufacturer SPXS
Bus Type Starlink V2M
Phase Status In Orbit
Owner/State SPXS/US

Most Searched